User: anonymous   Login
Location: Quebec
(46.8000°N, 71.2500°W)
Time: 16:44:19
(UTC-04:00)
Language:

CZ-4B R/B - Orbit

View from above orbital plane
View from above orbital plane
View from above satellite
View from above satellite

Ground track
Ground track

The orbit data is extracted from the following two-line orbital elements,

1 29093U 06015B   15117.19238822  .00008170  00000-0  25201-3 0  9994
2 29093 097.4934 203.6889 0078674 232.7602 180.8522 15.30806776497505
Epoch (UTC): 27 April 2015 04:37:02
Eccentricity: 0.0078674
inclination: 97.4934°
perigee height: 419 km
apogee height: 527 km
right ascension of ascending node: 203.6889°
argument of perigee: 232.7602°
revolutions per day: 15.30806776
mean anomaly at epoch: 180.8522°
orbit number at epoch: 49750

The dashed part of the orbit path shows where the satellite is in the earth's shadow,  

DLR